Year,Month,Day,Hour,Minute,Value (Times are PST for temperature in C)
2010,07,30,00,00,13.80
2010,07,30,00,01,13.80
2010,07,30,00,02,13.80
2010,07,30,00,03,13.80
2010,07,30,00,04,13.80
2010,07,30,00,05,13.80
2010,07,30,00,06,13.80
2010,07,30,00,07,13.80
2010,07,30,00,08,13.70
2010,07,30,00,09,13.70
2010,07,30,00,10,13.70
2010,07,30,00,11,13.70
2010,07,30,00,12,13.70
2010,07,30,00,13,13.70
2010,07,30,00,14,13.70
2010,07,30,00,15,13.70
2010,07,30,00,16,13.60
2010,07,30,00,17,13.60
2010,07,30,00,18,13.60
2010,07,30,00,19,13.60
2010,07,30,00,20,13.60
2010,07,30,00,21,13.60
2010,07,30,00,22,13.60
2010,07,30,00,23,13.60
2010,07,30,00,24,13.60
2010,07,30,00,25,13.50
2010,07,30,00,26,13.50
2010,07,30,00,27,13.50
2010,07,30,00,28,13.50
2010,07,30,00,29,13.40
2010,07,30,00,30,13.40
2010,07,30,00,31,13.40
2010,07,30,00,32,13.40
2010,07,30,00,33,13.40
2010,07,30,00,34,13.40
2010,07,30,00,35,13.40
2010,07,30,00,36,13.30
2010,07,30,00,37,13.30
2010,07,30,00,38,13.30
2010,07,30,00,39,13.30
2010,07,30,00,40,13.30
2010,07,30,00,41,13.30
2010,07,30,00,42,13.30
2010,07,30,00,43,13.30
2010,07,30,00,44,13.30
2010,07,30,00,45,13.30
2010,07,30,00,46,13.30
2010,07,30,00,47,13.30
2010,07,30,00,48,13.30
2010,07,30,00,49,13.30
2010,07,30,00,50,13.30
2010,07,30,00,51,13.30
2010,07,30,00,52,13.30
2010,07,30,00,53,13.30
2010,07,30,00,54,13.40
2010,07,30,00,55,13.40
2010,07,30,00,56,13.30
2010,07,30,00,57,13.30
2010,07,30,00,58,13.30
2010,07,30,00,59,13.30
2010,07,30,01,00,13.30
2010,07,30,01,01,13.30
2010,07,30,01,02,13.30
2010,07,30,01,03,13.30
2010,07,30,01,04,13.30
2010,07,30,01,05,13.30
2010,07,30,01,06,13.30
2010,07,30,01,07,13.30
2010,07,30,01,08,13.30
2010,07,30,01,09,13.30
2010,07,30,01,10,13.30
2010,07,30,01,11,13.30
2010,07,30,01,12,13.30
2010,07,30,01,13,13.30
2010,07,30,01,14,13.30
2010,07,30,01,15,13.30
2010,07,30,01,16,13.20
2010,07,30,01,17,13.20
2010,07,30,01,18,13.20
2010,07,30,01,19,13.20
2010,07,30,01,20,13.20
2010,07,30,01,21,13.20
2010,07,30,01,22,13.20
2010,07,30,01,23,13.10
2010,07,30,01,24,13.10
2010,07,30,01,25,13.10
2010,07,30,01,26,13.10
2010,07,30,01,27,13.10
2010,07,30,01,28,13.00
2010,07,30,01,29,13.00
2010,07,30,01,30,13.00
2010,07,30,01,31,13.00
2010,07,30,01,32,13.00
2010,07,30,01,33,12.90
2010,07,30,01,34,12.90
2010,07,30,01,35,12.90
2010,07,30,01,36,12.90
2010,07,30,01,37,12.80
2010,07,30,01,38,12.80
2010,07,30,01,39,12.80
2010,07,30,01,40,12.80
2010,07,30,01,41,12.80
2010,07,30,01,42,12.80
2010,07,30,01,43,12.70
2010,07,30,01,44,12.70
2010,07,30,01,45,12.70
2010,07,30,01,46,12.70
2010,07,30,01,47,12.70
2010,07,30,01,48,12.70
2010,07,30,01,49,12.70
2010,07,30,01,50,12.70
2010,07,30,01,51,12.70
2010,07,30,01,52,12.70
2010,07,30,01,53,12.70
2010,07,30,01,54,12.70
2010,07,30,01,55,12.60
2010,07,30,01,56,12.60
2010,07,30,01,57,12.60
2010,07,30,01,58,12.60
2010,07,30,01,59,12.60
2010,07,30,02,00,12.60
2010,07,30,02,01,12.60
2010,07,30,02,02,12.60
2010,07,30,02,03,12.60
2010,07,30,02,04,12.50
2010,07,30,02,05,12.50
2010,07,30,02,06,12.50
2010,07,30,02,07,12.50
2010,07,30,02,08,12.50
2010,07,30,02,09,12.50
2010,07,30,02,10,12.50
2010,07,30,02,11,12.50
2010,07,30,02,12,12.50
2010,07,30,02,13,12.50
2010,07,30,02,14,12.40
2010,07,30,02,15,12.40
2010,07,30,02,16,12.40
2010,07,30,02,17,12.40
2010,07,30,02,18,12.40
2010,07,30,02,19,12.30
2010,07,30,02,20,12.30
2010,07,30,02,21,12.30
2010,07,30,02,22,12.30
2010,07,30,02,23,12.30
2010,07,30,02,24,12.30
2010,07,30,02,25,12.30
2010,07,30,02,26,12.30
2010,07,30,02,27,12.20
2010,07,30,02,28,12.20
2010,07,30,02,29,12.20
2010,07,30,02,30,12.20
2010,07,30,02,31,12.10
2010,07,30,02,32,12.10
2010,07,30,02,33,12.00
2010,07,30,02,34,12.00
2010,07,30,02,35,11.90
2010,07,30,02,36,11.90
2010,07,30,02,37,11.80
2010,07,30,02,38,11.80
2010,07,30,02,39,11.80
2010,07,30,02,40,11.80
2010,07,30,02,41,11.70
2010,07,30,02,42,11.70
2010,07,30,02,43,11.70
2010,07,30,02,44,11.70
2010,07,30,02,45,11.70
2010,07,30,02,46,11.70
2010,07,30,02,47,11.70
2010,07,30,02,48,11.70
2010,07,30,02,49,11.60
2010,07,30,02,50,11.60
2010,07,30,02,51,11.60
2010,07,30,02,52,11.60
2010,07,30,02,53,11.60
2010,07,30,02,54,11.60
2010,07,30,02,55,11.60
2010,07,30,02,56,11.60
2010,07,30,02,57,11.60
2010,07,30,02,58,11.60
2010,07,30,02,59,11.60
2010,07,30,03,00,11.60
2010,07,30,03,01,11.60
2010,07,30,03,02,11.60
2010,07,30,03,03,11.60
2010,07,30,03,04,11.60
2010,07,30,03,05,11.50
2010,07,30,03,06,11.50
2010,07,30,03,07,11.50
2010,07,30,03,08,11.50
2010,07,30,03,09,11.50
2010,07,30,03,10,11.50
2010,07,30,03,11,11.40
2010,07,30,03,12,11.40
2010,07,30,03,13,11.40
2010,07,30,03,14,11.40
2010,07,30,03,15,11.40
2010,07,30,03,16,11.40
2010,07,30,03,17,11.40
2010,07,30,03,18,11.40
2010,07,30,03,19,11.40
2010,07,30,03,20,11.40
2010,07,30,03,21,11.40
2010,07,30,03,22,11.40
2010,07,30,03,23,11.40
2010,07,30,03,24,11.40
2010,07,30,03,25,11.30
2010,07,30,03,26,11.30
2010,07,30,03,27,11.30
2010,07,30,03,28,11.30
2010,07,30,03,29,11.30
2010,07,30,03,30,11.30
2010,07,30,03,31,11.30
2010,07,30,03,32,11.30
2010,07,30,03,33,11.30
2010,07,30,03,34,11.30
2010,07,30,03,35,11.30
2010,07,30,03,36,11.30
2010,07,30,03,37,11.30
2010,07,30,03,38,11.30
2010,07,30,03,39,11.30
2010,07,30,03,40,11.30
2010,07,30,03,41,11.30
2010,07,30,03,42,11.30
2010,07,30,03,43,11.30
2010,07,30,03,44,11.20
2010,07,30,03,45,11.20
2010,07,30,03,46,11.20
2010,07,30,03,47,11.20
2010,07,30,03,48,11.20
2010,07,30,03,49,11.20
2010,07,30,03,50,11.20
2010,07,30,03,51,11.20
2010,07,30,03,52,11.10
2010,07,30,03,53,11.10
2010,07,30,03,54,11.10
2010,07,30,03,55,11.10
2010,07,30,03,56,11.10
2010,07,30,03,57,11.10
2010,07,30,03,58,11.10
2010,07,30,03,59,11.10
2010,07,30,04,00,11.10
2010,07,30,04,01,11.10
2010,07,30,04,02,11.10
2010,07,30,04,03,11.00
2010,07,30,04,04,11.00
2010,07,30,04,05,11.00
2010,07,30,04,06,11.00
2010,07,30,04,07,11.00
2010,07,30,04,08,10.90
2010,07,30,04,09,10.90
2010,07,30,04,10,10.90
2010,07,30,04,11,10.90
2010,07,30,04,12,10.90
2010,07,30,04,13,10.90
2010,07,30,04,14,10.80
2010,07,30,04,15,10.80
2010,07,30,04,16,10.80
2010,07,30,04,17,10.80
2010,07,30,04,18,10.80
2010,07,30,04,19,10.80
2010,07,30,04,20,10.80
2010,07,30,04,21,10.80
2010,07,30,04,22,10.70
2010,07,30,04,23,10.70
2010,07,30,04,24,10.70
2010,07,30,04,25,10.70
2010,07,30,04,26,10.70
2010,07,30,04,27,10.60
2010,07,30,04,28,10.60
2010,07,30,04,29,10.60
2010,07,30,04,30,10.60
2010,07,30,04,31,10.60
2010,07,30,04,32,10.60
2010,07,30,04,33,10.60
2010,07,30,04,34,10.60
2010,07,30,04,35,10.50
2010,07,30,04,36,10.50
2010,07,30,04,37,10.50
2010,07,30,04,38,10.50
2010,07,30,04,39,10.50
2010,07,30,04,40,10.50
2010,07,30,04,41,10.40
2010,07,30,04,42,10.40
2010,07,30,04,43,10.40
2010,07,30,04,44,10.40
2010,07,30,04,45,10.40
2010,07,30,04,46,10.40
2010,07,30,04,47,10.40
2010,07,30,04,48,10.40
2010,07,30,04,49,10.40
2010,07,30,04,50,10.30
2010,07,30,04,51,10.30
2010,07,30,04,52,10.30
2010,07,30,04,53,10.30
2010,07,30,04,54,10.30
2010,07,30,04,55,10.20
2010,07,30,04,56,10.20
2010,07,30,04,57,10.20
2010,07,30,04,58,10.20
2010,07,30,04,59,10.20
2010,07,30,05,00,10.20
2010,07,30,05,01,10.20
2010,07,30,05,02,10.20
2010,07,30,05,03,10.10
2010,07,30,05,04,10.10
2010,07,30,05,05,10.10
2010,07,30,05,06,10.10
2010,07,30,05,07,10.10
2010,07,30,05,08,10.10
2010,07,30,05,09,10.10
2010,07,30,05,10,10.10
2010,07,30,05,11,10.10
2010,07,30,05,12,10.10
2010,07,30,05,13,10.10
2010,07,30,05,14,10.10
2010,07,30,05,15,10.10
2010,07,30,05,16,10.10
2010,07,30,05,17,10.00
2010,07,30,05,18,10.00
2010,07,30,05,19,10.00
2010,07,30,05,20,10.00
2010,07,30,05,21,10.00
2010,07,30,05,22,10.00
2010,07,30,05,23,10.00
2010,07,30,05,24,10.00
2010,07,30,05,25,10.00
2010,07,30,05,26,10.00
2010,07,30,05,27,10.00
2010,07,30,05,28,9.90
2010,07,30,05,29,9.90
2010,07,30,05,30,9.90
2010,07,30,05,31,9.90
2010,07,30,05,32,9.90
2010,07,30,05,33,9.90
2010,07,30,05,34,9.90
2010,07,30,05,35,9.90
2010,07,30,05,36,9.90
2010,07,30,05,37,9.90
2010,07,30,05,38,9.90
2010,07,30,05,39,9.80
2010,07,30,05,40,9.80
2010,07,30,05,41,9.80
2010,07,30,05,42,9.80
2010,07,30,05,43,9.80
2010,07,30,05,44,9.80
2010,07,30,05,45,9.80
2010,07,30,05,46,9.80
2010,07,30,05,47,9.80
2010,07,30,05,48,9.80
2010,07,30,05,49,9.80
2010,07,30,05,50,9.80
2010,07,30,05,51,9.80
2010,07,30,05,52,9.80
2010,07,30,05,53,9.80
2010,07,30,05,54,9.80
2010,07,30,05,55,9.80
2010,07,30,05,56,9.80
2010,07,30,05,57,9.80
2010,07,30,05,58,9.80
2010,07,30,05,59,9.80
2010,07,30,06,00,9.70
2010,07,30,06,01,9.70
2010,07,30,06,02,9.70
2010,07,30,06,03,9.70
2010,07,30,06,04,9.70
2010,07,30,06,05,9.70
2010,07,30,06,06,9.70
2010,07,30,06,07,9.70
2010,07,30,06,08,9.70
2010,07,30,06,09,9.80
2010,07,30,06,10,9.80
2010,07,30,06,11,9.80
2010,07,30,06,12,9.80
2010,07,30,06,13,9.80
2010,07,30,06,14,9.80
2010,07,30,06,15,9.80
2010,07,30,06,16,9.80
2010,07,30,06,17,9.80
2010,07,30,06,18,9.80
2010,07,30,06,19,9.80
2010,07,30,06,20,9.80
2010,07,30,06,21,9.80
2010,07,30,06,22,9.80
2010,07,30,06,23,9.80
2010,07,30,06,24,9.90
2010,07,30,06,25,9.80
2010,07,30,06,26,9.90
2010,07,30,06,27,9.90
2010,07,30,06,28,9.90
2010,07,30,06,29,10.00
2010,07,30,06,30,10.00
2010,07,30,06,31,10.10
2010,07,30,06,32,10.10
2010,07,30,06,33,10.10
2010,07,30,06,34,10.10
2010,07,30,06,35,10.20
2010,07,30,06,36,10.30
2010,07,30,06,37,10.30
2010,07,30,06,38,10.40
2010,07,30,06,39,10.40
2010,07,30,06,40,10.50
2010,07,30,06,41,10.50
2010,07,30,06,42,10.60
2010,07,30,06,43,10.60
2010,07,30,06,44,10.70
2010,07,30,06,45,10.70
2010,07,30,06,46,10.70
2010,07,30,06,47,10.80
2010,07,30,06,48,10.80
2010,07,30,06,49,10.80
2010,07,30,06,50,10.80
2010,07,30,06,51,10.80
2010,07,30,06,52,10.90
2010,07,30,06,53,10.90
2010,07,30,06,54,10.90
2010,07,30,06,55,10.90
2010,07,30,06,56,10.90
2010,07,30,06,57,10.90
2010,07,30,06,58,11.00
2010,07,30,06,59,11.00
2010,07,30,07,00,11.10
2010,07,30,07,01,11.20
2010,07,30,07,02,11.20
2010,07,30,07,03,11.30
2010,07,30,07,04,11.30
2010,07,30,07,05,11.40
2010,07,30,07,06,11.40
2010,07,30,07,07,11.40
2010,07,30,07,08,11.50
2010,07,30,07,09,11.60
2010,07,30,07,10,11.60
2010,07,30,07,11,11.60
2010,07,30,07,12,11.60
2010,07,30,07,13,11.60
2010,07,30,07,14,11.70
2010,07,30,07,15,11.70
2010,07,30,07,16,11.70
2010,07,30,07,17,11.80
2010,07,30,07,18,11.80
2010,07,30,07,19,11.90
2010,07,30,07,20,11.90
2010,07,30,07,21,12.00
2010,07,30,07,22,12.10
2010,07,30,07,23,12.10
2010,07,30,07,24,12.20
2010,07,30,07,25,12.30
2010,07,30,07,26,12.30
2010,07,30,07,27,12.40
2010,07,30,07,28,12.50
2010,07,30,07,29,12.60
2010,07,30,07,30,12.70
2010,07,30,07,31,12.70
2010,07,30,07,32,12.80
2010,07,30,07,33,12.90
2010,07,30,07,34,12.90
2010,07,30,07,35,13.00
2010,07,30,07,36,13.00
2010,07,30,07,37,13.10
2010,07,30,07,38,13.10
2010,07,30,07,39,13.10
2010,07,30,07,40,13.20
2010,07,30,07,41,13.30
2010,07,30,07,42,13.30
2010,07,30,07,43,13.30
2010,07,30,07,44,13.40
2010,07,30,07,45,13.40
2010,07,30,07,46,13.50
2010,07,30,07,47,13.60
2010,07,30,07,48,13.60
2010,07,30,07,49,13.70
2010,07,30,07,50,13.80
2010,07,30,07,51,13.80
2010,07,30,07,52,13.80
2010,07,30,07,53,13.90
2010,07,30,07,54,13.90
2010,07,30,07,55,14.00
2010,07,30,07,56,14.10
2010,07,30,07,57,14.20
2010,07,30,07,58,14.30
2010,07,30,07,59,14.40
2010,07,30,08,00,14.50
2010,07,30,08,01,14.60
2010,07,30,08,02,14.60
2010,07,30,08,03,14.70
2010,07,30,08,04,14.80
2010,07,30,08,05,14.90
2010,07,30,08,06,15.00
2010,07,30,08,07,15.00
2010,07,30,08,08,15.00
2010,07,30,08,09,15.00
2010,07,30,08,10,15.10
2010,07,30,08,11,15.20
2010,07,30,08,12,15.30
2010,07,30,08,13,15.40
2010,07,30,08,14,15.50
2010,07,30,08,15,15.60
2010,07,30,08,16,15.70
2010,07,30,08,17,15.70
2010,07,30,08,18,15.70
2010,07,30,08,19,15.80
2010,07,30,08,20,15.80
2010,07,30,08,21,15.90
2010,07,30,08,22,15.90
2010,07,30,08,23,16.00
2010,07,30,08,24,16.10
2010,07,30,08,25,16.10
2010,07,30,08,26,16.20
2010,07,30,08,27,16.20
2010,07,30,08,28,16.30
2010,07,30,08,29,16.30
2010,07,30,08,30,16.30
2010,07,30,08,31,16.30
2010,07,30,08,32,16.30
2010,07,30,08,33,16.30
2010,07,30,08,34,16.30
2010,07,30,08,35,16.30
2010,07,30,08,36,16.30
2010,07,30,08,37,16.30
2010,07,30,08,38,16.30
2010,07,30,08,39,16.30
2010,07,30,08,40,16.20
2010,07,30,08,41,16.20
2010,07,30,08,42,16.20
2010,07,30,08,43,16.20
2010,07,30,08,44,16.20
2010,07,30,08,45,16.30
2010,07,30,08,46,16.30
2010,07,30,08,47,16.40
2010,07,30,08,48,16.40
2010,07,30,08,49,16.50
2010,07,30,08,50,16.50
2010,07,30,08,51,16.60
2010,07,30,08,52,16.60
2010,07,30,08,53,16.60
2010,07,30,08,54,16.60
2010,07,30,08,55,16.70
2010,07,30,08,56,16.70
2010,07,30,08,57,16.70
2010,07,30,08,58,16.70
2010,07,30,08,59,16.70
2010,07,30,09,00,16.60
2010,07,30,09,01,16.60
2010,07,30,09,02,16.60
2010,07,30,09,03,16.60
2010,07,30,09,04,16.60
2010,07,30,09,05,16.60
2010,07,30,09,06,16.60
2010,07,30,09,07,16.60
2010,07,30,09,08,16.60
2010,07,30,09,09,16.60
2010,07,30,09,10,16.60
2010,07,30,09,11,16.60
2010,07,30,09,12,16.60
2010,07,30,09,13,16.60
2010,07,30,09,14,16.60
2010,07,30,09,15,16.60
2010,07,30,09,16,16.50
2010,07,30,09,17,16.50
2010,07,30,09,18,16.50
2010,07,30,09,19,16.40
2010,07,30,09,20,16.30
2010,07,30,09,21,16.30
2010,07,30,09,22,16.30
2010,07,30,09,23,16.30
2010,07,30,09,24,16.30
2010,07,30,09,25,16.30
2010,07,30,09,26,16.30
2010,07,30,09,27,16.30
2010,07,30,09,28,16.30
2010,07,30,09,29,16.30
2010,07,30,09,30,16.30
2010,07,30,09,31,16.30
2010,07,30,09,32,16.40
2010,07,30,09,33,16.60
2010,07,30,09,34,16.70
2010,07,30,09,35,16.70
2010,07,30,09,36,16.70
2010,07,30,09,37,16.80
2010,07,30,09,38,16.80
2010,07,30,09,39,16.80
2010,07,30,09,40,16.80
2010,07,30,09,41,16.80
2010,07,30,09,42,16.70
2010,07,30,09,43,16.70
2010,07,30,09,44,16.80
2010,07,30,09,45,16.80
2010,07,30,09,46,16.80
2010,07,30,09,47,16.90
2010,07,30,09,48,17.00
2010,07,30,09,49,17.00
2010,07,30,09,50,17.10
2010,07,30,09,51,17.20
2010,07,30,09,52,17.20
2010,07,30,09,53,17.30
2010,07,30,09,54,17.30
2010,07,30,09,55,17.30
2010,07,30,09,56,17.30
2010,07,30,09,57,17.30
2010,07,30,09,58,17.40
2010,07,30,09,59,17.40
2010,07,30,10,00,17.50
2010,07,30,10,01,17.60
2010,07,30,10,02,17.70
2010,07,30,10,03,17.60
2010,07,30,10,04,17.60
2010,07,30,10,05,17.60
2010,07,30,10,06,17.60
2010,07,30,10,07,17.70
2010,07,30,10,08,17.70
2010,07,30,10,09,17.70
2010,07,30,10,10,17.80
2010,07,30,10,11,17.90
2010,07,30,10,12,18.00
2010,07,30,10,13,18.00
2010,07,30,10,14,18.10
2010,07,30,10,15,18.10
2010,07,30,10,16,18.10
2010,07,30,10,17,18.00
2010,07,30,10,18,18.00
2010,07,30,10,19,18.00
2010,07,30,10,20,18.10
2010,07,30,10,21,18.10
2010,07,30,10,22,18.10
2010,07,30,10,23,18.20
2010,07,30,10,24,18.20
2010,07,30,10,25,18.30
2010,07,30,10,26,18.30
2010,07,30,10,27,18.40
2010,07,30,10,28,18.50
2010,07,30,10,29,18.50
2010,07,30,10,30,18.60
2010,07,30,10,31,18.50
2010,07,30,10,32,18.30
2010,07,30,10,33,18.20
2010,07,30,10,34,18.20
2010,07,30,10,35,18.10
2010,07,30,10,36,18.00
2010,07,30,10,37,17.90
2010,07,30,10,38,17.90
2010,07,30,10,39,17.80
2010,07,30,10,40,17.80
2010,07,30,10,41,17.80
2010,07,30,10,42,17.70
2010,07,30,10,43,17.70
2010,07,30,10,44,17.80
2010,07,30,10,45,17.90
2010,07,30,10,46,18.10
2010,07,30,10,47,18.30
2010,07,30,10,48,18.40
2010,07,30,10,49,18.40
2010,07,30,10,50,18.50
2010,07,30,10,51,18.60
2010,07,30,10,52,18.70
2010,07,30,10,53,18.80
2010,07,30,10,54,18.90
2010,07,30,10,55,18.90
2010,07,30,10,56,18.90
2010,07,30,10,57,19.00
2010,07,30,10,58,19.00
2010,07,30,10,59,18.90
2010,07,30,11,00,18.80
2010,07,30,11,01,18.70
2010,07,30,11,02,18.70
2010,07,30,11,03,18.60
2010,07,30,11,04,18.50
2010,07,30,11,05,18.40
2010,07,30,11,06,18.30
2010,07,30,11,07,18.30
2010,07,30,11,08,18.30
2010,07,30,11,09,18.30
2010,07,30,11,10,18.30
2010,07,30,11,11,18.30
2010,07,30,11,12,18.40
2010,07,30,11,13,18.50
2010,07,30,11,14,18.70
2010,07,30,11,15,18.70
2010,07,30,11,16,18.80
2010,07,30,11,17,18.90
2010,07,30,11,18,18.80
2010,07,30,11,19,18.80
2010,07,30,11,20,18.90
2010,07,30,11,21,18.90
2010,07,30,11,22,18.90
2010,07,30,11,23,18.80
2010,07,30,11,24,18.80
2010,07,30,11,25,18.80
2010,07,30,11,26,18.70
2010,07,30,11,27,18.60
2010,07,30,11,28,18.60
2010,07,30,11,29,18.60
2010,07,30,11,30,18.70
2010,07,30,11,31,18.70
2010,07,30,11,32,18.80
2010,07,30,11,33,18.80
2010,07,30,11,34,18.80
2010,07,30,11,35,18.80
2010,07,30,11,36,18.80
2010,07,30,11,37,18.80
2010,07,30,11,38,18.80
2010,07,30,11,39,18.70
2010,07,30,11,40,18.60
2010,07,30,11,41,18.30
2010,07,30,11,42,18.10
2010,07,30,11,43,17.90
2010,07,30,11,44,17.80
2010,07,30,11,45,17.70
2010,07,30,11,46,17.70
2010,07,30,11,47,17.60
2010,07,30,11,48,17.70
2010,07,30,11,49,17.80
2010,07,30,11,50,17.80
2010,07,30,11,51,17.80
2010,07,30,11,52,17.80
2010,07,30,11,53,17.80
2010,07,30,11,54,17.80
2010,07,30,11,55,17.80
2010,07,30,11,56,17.80
2010,07,30,11,57,17.70
2010,07,30,11,58,17.60
2010,07,30,11,59,17.60
2010,07,30,12,00,17.60
2010,07,30,12,01,17.50
2010,07,30,12,02,17.40
2010,07,30,12,03,17.30
2010,07,30,12,04,17.30
2010,07,30,12,05,17.20
2010,07,30,12,06,17.20
2010,07,30,12,07,17.30
2010,07,30,12,08,17.40
2010,07,30,12,09,17.40
2010,07,30,12,10,17.40
2010,07,30,12,11,17.40
2010,07,30,12,12,17.40
2010,07,30,12,13,17.40
2010,07,30,12,14,17.40
2010,07,30,12,15,17.40
2010,07,30,12,16,17.40
2010,07,30,12,17,17.50
2010,07,30,12,18,17.40
2010,07,30,12,19,17.40
2010,07,30,12,20,17.40
2010,07,30,12,21,17.40
2010,07,30,12,22,17.40
2010,07,30,12,23,17.50
2010,07,30,12,24,17.60
2010,07,30,12,25,17.60
2010,07,30,12,26,17.60
2010,07,30,12,27,17.70
2010,07,30,12,28,17.70
2010,07,30,12,29,17.80
2010,07,30,12,30,17.80
2010,07,30,12,31,17.90
2010,07,30,12,32,17.90
2010,07,30,12,33,17.90
2010,07,30,12,34,18.00
2010,07,30,12,35,18.10
2010,07,30,12,36,18.10
2010,07,30,12,37,18.20
2010,07,30,12,38,18.10
2010,07,30,12,39,18.10
2010,07,30,12,40,18.20
2010,07,30,12,41,18.20
2010,07,30,12,42,18.20
2010,07,30,12,43,18.20
2010,07,30,12,44,18.30
2010,07,30,12,45,18.30
2010,07,30,12,46,18.30
2010,07,30,12,47,18.30
2010,07,30,12,48,18.30
2010,07,30,12,49,18.20
2010,07,30,12,50,18.20
2010,07,30,12,51,18.20
2010,07,30,12,52,18.30
2010,07,30,12,53,18.30
2010,07,30,12,54,18.40
2010,07,30,12,55,18.30
2010,07,30,12,56,18.40
2010,07,30,12,57,18.40
2010,07,30,12,58,18.30
2010,07,30,12,59,18.30
2010,07,30,13,00,18.30
2010,07,30,13,01,18.20
2010,07,30,13,02,18.20
2010,07,30,13,03,18.10
2010,07,30,13,04,18.10
2010,07,30,13,05,18.10
2010,07,30,13,06,18.10
2010,07,30,13,07,18.10
2010,07,30,13,08,18.10
2010,07,30,13,09,18.10
2010,07,30,13,10,18.10
2010,07,30,13,11,18.00
2010,07,30,13,12,18.00
2010,07,30,13,13,18.00
2010,07,30,13,14,18.20
2010,07,30,13,15,18.20
2010,07,30,13,16,18.30
2010,07,30,13,17,18.40
2010,07,30,13,18,18.40
2010,07,30,13,19,18.50
2010,07,30,13,20,18.60
2010,07,30,13,21,18.70
2010,07,30,13,22,18.70
2010,07,30,13,23,18.80
2010,07,30,13,24,18.80
2010,07,30,13,25,18.70
2010,07,30,13,26,18.60
2010,07,30,13,27,18.60
2010,07,30,13,28,18.50
2010,07,30,13,29,18.50
2010,07,30,13,30,18.50
2010,07,30,13,31,18.50
2010,07,30,13,32,18.50
2010,07,30,13,33,18.60
2010,07,30,13,34,18.60
2010,07,30,13,35,18.60
2010,07,30,13,36,18.70
2010,07,30,13,37,18.80
2010,07,30,13,38,18.80
2010,07,30,13,39,18.80
2010,07,30,13,40,18.90
2010,07,30,13,41,18.90
2010,07,30,13,42,18.90
2010,07,30,13,43,19.00
2010,07,30,13,44,19.00
2010,07,30,13,45,19.00
2010,07,30,13,46,19.10
2010,07,30,13,47,19.20
2010,07,30,13,48,19.20
2010,07,30,13,49,19.00
2010,07,30,13,50,19.00
2010,07,30,13,51,18.90
2010,07,30,13,52,18.90
2010,07,30,13,53,19.00
2010,07,30,13,54,19.10
2010,07,30,13,55,19.10
2010,07,30,13,56,19.10
2010,07,30,13,57,19.10
2010,07,30,13,58,19.10
2010,07,30,13,59,19.10
2010,07,30,14,00,19.10
2010,07,30,14,01,19.10
2010,07,30,14,02,19.10
2010,07,30,14,03,19.20
2010,07,30,14,04,19.20
2010,07,30,14,05,19.20
2010,07,30,14,06,19.20
2010,07,30,14,07,19.20
2010,07,30,14,08,19.20
2010,07,30,14,09,19.30
2010,07,30,14,10,19.40
2010,07,30,14,11,19.40
2010,07,30,14,12,19.50
2010,07,30,14,13,19.50
2010,07,30,14,14,19.60
2010,07,30,14,15,19.50
2010,07,30,14,16,19.60
2010,07,30,14,17,19.60
2010,07,30,14,18,19.70
2010,07,30,14,19,19.70
2010,07,30,14,20,19.70
2010,07,30,14,21,19.70
2010,07,30,14,22,19.80
2010,07,30,14,23,19.90
2010,07,30,14,24,19.90
2010,07,30,14,25,19.90
2010,07,30,14,26,19.90
2010,07,30,14,27,20.00
2010,07,30,14,28,20.00
2010,07,30,14,29,20.10
2010,07,30,14,30,20.20
2010,07,30,14,31,20.30
2010,07,30,14,32,20.40
2010,07,30,14,33,20.40
2010,07,30,14,34,20.50
2010,07,30,14,35,20.50
2010,07,30,14,36,20.60
2010,07,30,14,37,20.60
2010,07,30,14,38,20.70
2010,07,30,14,39,20.70
2010,07,30,14,40,20.70
2010,07,30,14,41,20.70
2010,07,30,14,42,20.60
2010,07,30,14,43,20.60
2010,07,30,14,44,20.50
2010,07,30,14,45,20.50
2010,07,30,14,46,20.60
2010,07,30,14,47,20.70
2010,07,30,14,48,20.80
2010,07,30,14,49,20.90
2010,07,30,14,50,21.00
2010,07,30,14,51,21.10
2010,07,30,14,52,21.10
2010,07,30,14,53,21.10
2010,07,30,14,54,21.10
2010,07,30,14,55,21.20
2010,07,30,14,56,21.20
2010,07,30,14,57,21.20
2010,07,30,14,58,21.20
2010,07,30,14,59,21.20
2010,07,30,15,00,21.20
2010,07,30,15,01,21.20
2010,07,30,15,02,21.30
2010,07,30,15,03,21.30
2010,07,30,15,04,21.40
2010,07,30,15,05,21.50
2010,07,30,15,06,21.70
2010,07,30,15,07,21.80
2010,07,30,15,08,21.70
2010,07,30,15,09,21.60
2010,07,30,15,10,21.70
2010,07,30,15,11,21.60
2010,07,30,15,12,21.50
2010,07,30,15,13,21.30
2010,07,30,15,14,21.10
2010,07,30,15,15,21.10
2010,07,30,15,16,21.00
2010,07,30,15,17,21.00
2010,07,30,15,18,21.10
2010,07,30,15,19,21.10
2010,07,30,15,20,21.00
2010,07,30,15,21,20.90
2010,07,30,15,22,20.90
2010,07,30,15,23,21.00
2010,07,30,15,24,21.10
2010,07,30,15,25,21.20
2010,07,30,15,26,21.30
2010,07,30,15,27,21.30
2010,07,30,15,28,21.40
2010,07,30,15,29,21.40
2010,07,30,15,30,21.30
2010,07,30,15,31,21.30
2010,07,30,15,32,21.20
2010,07,30,15,33,21.00
2010,07,30,15,34,20.90
2010,07,30,15,35,20.90
2010,07,30,15,36,20.90
2010,07,30,15,37,20.90
2010,07,30,15,38,20.90
2010,07,30,15,39,20.90
2010,07,30,15,40,21.00
2010,07,30,15,41,21.00
2010,07,30,15,42,20.90
2010,07,30,15,43,20.90
2010,07,30,15,44,20.90
2010,07,30,15,45,21.00
2010,07,30,15,46,21.00
2010,07,30,15,47,21.10
2010,07,30,15,48,21.10
2010,07,30,15,49,20.90
2010,07,30,15,50,20.80
2010,07,30,15,51,20.80
2010,07,30,15,52,20.80
2010,07,30,15,53,20.80
2010,07,30,15,54,20.80
2010,07,30,15,55,20.80
2010,07,30,15,56,20.80
2010,07,30,15,57,20.80
2010,07,30,15,58,20.90
2010,07,30,15,59,20.80
2010,07,30,16,00,20.70
2010,07,30,16,01,20.70
2010,07,30,16,02,20.60
2010,07,30,16,03,20.60
2010,07,30,16,04,20.60
2010,07,30,16,05,20.60
2010,07,30,16,06,20.50
2010,07,30,16,07,20.40
2010,07,30,16,08,20.40
2010,07,30,16,09,20.50
2010,07,30,16,10,20.50
2010,07,30,16,11,20.40
2010,07,30,16,12,20.40
2010,07,30,16,13,20.40
2010,07,30,16,14,20.30
2010,07,30,16,15,20.30
2010,07,30,16,16,20.20
2010,07,30,16,17,20.10
2010,07,30,16,18,20.00
2010,07,30,16,19,19.90
2010,07,30,16,20,19.70
2010,07,30,16,21,19.60
2010,07,30,16,22,19.50
2010,07,30,16,23,19.40
2010,07,30,16,24,19.40
2010,07,30,16,25,19.50
2010,07,30,16,26,19.60
2010,07,30,16,27,19.60
2010,07,30,16,28,19.70
2010,07,30,16,29,19.70
2010,07,30,16,30,19.80
2010,07,30,16,31,19.90
2010,07,30,16,32,20.00
2010,07,30,16,33,20.20
2010,07,30,16,34,20.40
2010,07,30,16,35,20.40
2010,07,30,16,36,20.40
2010,07,30,16,37,20.50
2010,07,30,16,38,20.70
2010,07,30,16,39,20.80
2010,07,30,16,40,20.80
2010,07,30,16,41,20.90
2010,07,30,16,42,21.00
2010,07,30,16,43,20.90
2010,07,30,16,44,20.80
2010,07,30,16,45,20.80
2010,07,30,16,46,20.90
2010,07,30,16,47,20.80
2010,07,30,16,48,20.70
2010,07,30,16,49,20.70
2010,07,30,16,50,20.70
2010,07,30,16,51,20.70
2010,07,30,16,52,20.70
2010,07,30,16,53,20.70
2010,07,30,16,54,20.80
2010,07,30,16,55,20.80
2010,07,30,16,56,20.90
2010,07,30,16,57,20.90
2010,07,30,16,58,20.90
2010,07,30,16,59,20.90
2010,07,30,17,00,20.90
2010,07,30,17,01,20.90
2010,07,30,17,02,21.00
2010,07,30,17,03,21.00
2010,07,30,17,04,20.90
2010,07,30,17,05,20.80
2010,07,30,17,06,20.80
2010,07,30,17,07,20.80
2010,07,30,17,08,20.80
2010,07,30,17,09,20.80
2010,07,30,17,10,20.80
2010,07,30,17,11,20.70
2010,07,30,17,12,20.60
2010,07,30,17,13,20.50
2010,07,30,17,14,20.40
2010,07,30,17,15,20.40
2010,07,30,17,16,20.40
2010,07,30,17,17,20.40
2010,07,30,17,18,20.30
2010,07,30,17,19,20.30
2010,07,30,17,20,20.20
2010,07,30,17,21,20.00
2010,07,30,17,22,19.90